GW5308 Weather Reports


time (UTC)temp
F
wind
direction
speed
knots
gust
knots
rain 1hr
in
rain 24hr
in
rain mn
in
humidity
%
barometer
mb
20260509023036 71 0 0.0 0.0 0.00 0.01 0.01 98 1013.7
20260509022514 71 0 0.0 0.0 0.00 0.01 0.01 99 1013.5
20260509022017 71 0 0.0 0.0 0.00 0.01 0.01 99 1013.5
20260509021534 71 0 0.0 0.0 0.00 0.01 0.01 99 1013.6
20260509021017 71 0 0.0 0.0 0.00 0.01 0.01 99 1013.6
20260509020514 71 0 0.0 0.0 0.00 0.01 0.01 99 1013.5
20260509020031 71 0 0.0 0.0 0.00 0.01 0.01 99 1013.4
20260509015514 71 0 0.0 0.0 0.00 0.01 0.01 99 1013.4
20260509015019 71 0 0.0 0.0 0.00 0.01 0.01 99 1013.3
20260509014532 71 0 0.0 0.0 0.00 0.01 0.01 99 1013.4
20260509014015 71 0 0.0 0.0 0.00 0.01 0.01 98 1013.4
20260509013515 71 0 0.0 0.0 0.00 0.01 0.01 99 1013.3
20260509013041 71 0 0.0 0.0 0.00 0.01 0.01 99 1013.5
20260509012512 71 0 0.0 0.0 0.00 0.01 0.01 99 1013.5
20260509012017 71 0 0.0 0.0 0.00 0.01 0.01 98 1013.6
20260509011531 71 0 0.0 0.0 0.00 0.01 0.01 98 1013.3
20260509011013 71 0 0.0 0.0 0.00 0.01 0.01 98 1013.1
20260509010513 71 0 0.0 0.0 0.00 0.01 0.01 98 1012.9
20260509010036 71 0 0.0 0.0 0.00 0.01 0.01 98 1012.8
20260509005513 71 0 0.0 0.0 0.00 0.01 0.01 98 1012.8
20260509005014 71 0 0.0 0.0 0.00 0.01 0.01 97 1012.7
20260509004543 71 0 0.0 0.0 0.00 0.01 0.01 97 1012.5
20260509004012 71 0 0.0 0.0 0.00 0.01 0.01 97 1012.5
20260509003515 71 0 0.0 0.0 0.01 0.01 0.01 97 1012.5
20260509003034 71 0 0.0 0.0 0.01 0.01 0.01 97 1012.5
20260509002514 72 0 0.0 1.7 0.01 0.01 0.01 96 1012.4
20260509002014 72 0 0.0 1.7 0.01 0.01 0.01 96 1012.5
20260509001533 72 26 0.0 1.7 0.01 0.01 0.01 96 1012.5
20260509001014 72 316 0.0 1.7 0.01 0.01 0.01 96 1012.4
20260509000514 72 7 0.0 1.7 0.01 0.01 0.01 95 1012.4
20260509000040 72 357 0.0 2.6 0.01 0.01 0.01 95 1012.5
20260508235513 73 256 0.0 3.5 0.01 0.01 0.01 93 1012.8
20260508235013 73 13 0.9 3.5 0.01 0.01 0.01 92 1012.3
20260508234530 74 351 0.0 4.3 0.01 0.01 0.01 90 1012.5
20260508234012 75 37 0.9 4.3 0.00 0.00 0.00 87 1012.3
20260508233521 76 23 0.9 4.3 0.00 0.00 0.00 84 1012.1
20260508233034 77 42 0.9 4.3 0.00 0.00 0.00 83 1012.3
20260508232514 77 4 0.9 5.2 0.00 0.00 0.00 83 1011.8
20260508232014 78 288 0.9 5.2 0.00 0.00 0.00 83 1011.8
20260508231538 78 18 1.7 5.2 0.00 0.00 0.00 83 1011.7
20260508231019 79 36 1.7 8.7 0.00 0.00 0.00 83 1011.6
20260508230515 80 51 2.6 8.7 0.00 0.00 0.00 83 1011.6
20260508230031 82 25 2.6 7.0 0.00 0.00 0.00 81 1011.5
20260508225513 83 44 0.9 4.3 0.00 0.00 0.00 79 1011.5
20260508225013 83 0 0.0 2.6 0.00 0.00 0.00 79 1011.3
20260508224555 83 201 0.0 5.2 0.00 0.00 0.00 79 1010.9
20260508224013 84 11 1.7 5.2 0.00 0.00 0.00 78 1010.8
20260508223514 84 140 0.9 6.1 0.00 0.00 0.00 78 1010.5
20260508223030 84 53 1.7 6.1 0.00 0.00 0.00 78 1010.3
20260508222513 85 355 0.9 5.2 0.00 0.00 0.00 78 1010.2
20260508222013 85 359 1.7 7.0 0.00 0.00 0.00 77 1010.2
20260508221539 85 272 0.9 7.0 0.00 0.00 0.00 77 1010.5
20260508221016 85 25 2.6 7.0 0.00 0.00 0.00 76 1010.4
20260508220519 85 353 1.7 6.1 0.00 0.00 0.00 77 1010.5
20260508220036 86 308 1.7 6.1 0.00 0.00 0.00 76 1010.0
20260508215514 86 56 0.9 5.2 0.00 0.00 0.00 77 1009.8
20260508215019 86 305 2.6 5.2 0.00 0.00 0.00 76 1010.0
20260508214539 86 6 1.7 5.2 0.00 0.00 0.00 76 1010.2
20260508214013 87 352 1.7 8.7 0.00 0.00 0.00 75 1010.1
20260508213513 87 15 1.7 8.7 0.00 0.00 0.00 75 1010.2
20260508213035 88 36 1.7 5.2 0.00 0.00 0.00 73 1010.3
20260508212514 88 2 1.7 4.3 0.00 0.00 0.00 73 1010.2
20260508212015 88 278 0.9 6.1 0.00 0.00 0.00 74 1010.2
20260508211533 88 72 2.6 6.1 0.00 0.00 0.00 74 1010.1
20260508211015 89 345 1.7 6.1 0.00 0.00 0.00 72 1010.2
20260508210513 89 53 1.7 6.1 0.00 0.00 0.00 74 1010.1
20260508210033 88 0 0.9 6.1 0.00 0.00 0.00 74 1010.2
20260508205513 88 13 1.7 6.1 0.00 0.00 0.00 74 1010.3
20260508205015 87 54 1.7 6.1 0.00 0.00 0.00 75 1010.3
20260508204535 87 37 1.7 7.0 0.00 0.00 0.00 75 1010.3
20260508204013 88 58 2.6 7.0 0.00 0.00 0.00 73 1010.3
20260508203522 88 15 1.7 4.3 0.00 0.00 0.00 72 1010.1
20260508203035 89 252 0.0 5.2 0.00 0.00 0.00 70 1010.1
20260508202515 90 0 1.7 5.2 0.00 0.00 0.00 69 1010.1
20260508202016 90 328 0.9 4.3 0.00 0.00 0.00 69 1010.3
20260508201537 90 17 0.9 3.5 0.00 0.00 0.00 70 1010.2
20260508201014 89 330 0.9 3.5 0.00 0.00 0.00 70 1010.3
20260508200514 88 0 0.0 3.5 0.00 0.00 0.00 71 1010.6
20260508200044 88 299 0.9 3.5 0.00 0.00 0.00 70 1010.7
20260508195516 89 59 0.9 3.5 0.00 0.00 0.00 70 1010.7
20260508195014 89 349 0.9 2.6 0.00 0.00 0.00 70 1010.9
20260508194531 89 255 0.0 1.7 0.00 0.00 0.00 68 1011.0
20260508194015 90 299 0.0 1.7 0.00 0.00 0.00 66 1011.0
20260508193511 90 0 0.0 2.6 0.00 0.00 0.00 66 1011.1
20260508193037 90 65 0.0 5.2 0.00 0.00 0.00 66 1011.2
20260508192520 90 21 0.9 5.2 0.00 0.00 0.00 65 1011.3
20260508192016 91 37 0.0 2.6 0.00 0.00 0.00 66 1011.3
20260508191535 90 309 0.0 5.2 0.00 0.00 0.00 66 1011.4
20260508191016 91 324 1.7 5.2 0.00 0.00 0.00 66 1011.5
20260508190517 92 18 1.7 6.1 0.00 0.00 0.00 64 1011.6
20260508190033 92 42 1.7 6.1 0.00 0.00 0.00 64 1011.6
20260508185516 92 124 0.0 4.3 0.00 0.00 0.00 64 1011.7
20260508185015 93 67 1.7 4.3 0.00 0.00 0.00 62 1011.9
20260508184536 93 220 0.0 3.5 0.00 0.00 0.00 60 1011.8
20260508184018 93 131 0.9 3.5 0.00 0.00 0.00 59 1011.9
20260508183515 92 0 0.0 2.6 0.00 0.00 0.00 59 1012.0
20260508183031 93 0 0.9 3.5 0.00 0.00 0.00 58 1012.2
20260508182515 93 208 0.9 3.5 0.00 0.00 0.00 56 1012.3
20260508182015 93 0 0.9 2.6 0.00 0.00 0.00 57 1012.4
20260508181548 94 263 0.0 0.9 0.00 0.00 0.00 59 1012.4
20260508181017 93 200 0.0 3.5 0.00 0.00 0.00 60 1012.4
20260508180514 93 246 0.9 3.5 0.00 0.00 0.00 59 1012.6
20260508180034 94 236 0.0 1.7 0.00 0.00 0.00 57 1012.7
20260508175516 94 0 0.0 1.7 0.00 0.00 0.00 57 1012.8
20260508175016 93 126 0.0 2.6 0.00 0.00 0.00 60 1013.0
20260508174534 93 296 0.0 2.6 0.00 0.00 0.00 61 1013.0
20260508174019 92 238 0.0 2.6 0.00 0.00 0.00 61 1012.8
20260508173517 92 153 0.9 2.6 0.00 0.00 0.00 60 1012.9
20260508173036 91 204 0.9 2.6 0.00 0.00 0.00 63 1013.0
20260508172515 92 261 0.0 3.5 0.00 0.00 0.00 62 1013.2
20260508172015 91 234 0.9 3.5 0.00 0.00 0.00 63 1013.2
20260508171536 91 316 0.0 3.5 0.00 0.00 0.00 63 1013.3
20260508171019 91 0 0.0 3.5 0.00 0.00 0.00 64 1013.5
20260508170516 91 331 0.0 3.5 0.00 0.00 0.00 66 1013.6
20260508170032 90 0 0.9 3.5 0.00 0.00 0.00 65 1013.6
20260508165515 89 167 0.0 1.7 0.00 0.00 0.00 68 1013.7
20260508165017 89 184 0.0 2.6 0.00 0.00 0.00 69 1013.7
20260508164534 89 0 0.0 2.6 0.00 0.00 0.00 69 1013.8
20260508164016 89 207 0.0 1.7 0.00 0.00 0.00 67 1013.8
20260508163514 90 227 0.0 1.7 0.00 0.00 0.00 66 1013.9
20260508163034 90 12 0.0 1.7 0.00 0.00 0.00 68 1013.9
20260508162517 90 208 0.0 2.6 0.00 0.00 0.00 68 1014.0
20260508162016 90 0 0.0 2.6 0.00 0.00 0.00 68 1014.0
20260508161538 89 244 0.0 1.7 0.00 0.00 0.00 71 1014.1
20260508161017 88 338 0.0 1.7 0.00 0.00 0.00 71 1014.2
20260508160519 87 0 0.0 1.7 0.00 0.00 0.00 72 1014.3
20260508160036 87 2 0.9 1.7 0.00 0.00 0.00 71 1014.5
20260508155516 88 235 0.0 1.7 0.00 0.00 0.00 72 1014.5
20260508155015 87 0 0.0 1.7 0.00 0.00 0.00 72 1014.5
20260508154534 87 226 0.0 2.6 0.00 0.00 0.00 73 1014.5
20260508154013 86 359 0.0 3.5 0.00 0.00 0.00 74 1014.6
20260508153515 87 349 0.9 3.5 0.00 0.00 0.00 73 1014.7
20260508153035 87 315 1.7 3.5 0.00 0.00 0.00 73 1014.7
20260508152513 87 204 0.0 2.6 0.00 0.00 0.00 77 1014.7
20260508152016 86 169 0.9 3.5 0.00 0.00 0.00 75 1014.7
20260508151542 86 208 0.9 3.5 0.00 0.00 0.00 76 1014.8
20260508151019 86 32 0.0 1.7 0.00 0.00 0.00 77 1014.8
20260508150516 85 0 0.0 2.6 0.00 0.00 0.00 79 1014.9
20260508150039 84 29 0.0 2.6 0.00 0.00 0.00 79 1014.8
20260508145517 84 195 0.0 2.6 0.00 0.00 0.00 78 1014.8
20260508145018 84 0 0.0 3.5 0.00 0.00 0.00 79 1014.8
20260508144541 85 48 0.9 3.5 0.00 0.00 0.00 79 1014.7
20260508144017 85 30 0.0 1.7 0.00 0.00 0.00 79 1014.6
20260508143518 85 225 0.0 2.6 0.00 0.00 0.00 81 1014.6
20260508143038 83 0 0.0 3.5 0.00 0.00 0.00 82 1014.7
20260508142515 84 0 0.0 3.5 0.00 0.00 0.00 82 1014.7
20260508142016 84 285 0.9 3.5 0.00 0.00 0.00 84 1014.8
20260508141535 83 146 0.9 1.7 0.00 0.00 0.00 84 1014.8
20260508141015 83 157 0.0 2.6 0.00 0.00 0.00 84 1014.8
20260508140516 82 0 0.0 2.6 0.00 0.00 0.00 87 1014.6
20260508140042 82 329 0.0 3.5 0.00 0.00 0.00 87 1014.6
20260508135518 81 187 0.0 3.5 0.00 0.00 0.00 88 1014.8
20260508135016 81 136 0.0 0.9 0.00 0.00 0.00 88 1014.8
20260508134533 80 245 0.0 0.9 0.00 0.00 0.00 89 1014.8
20260508134016 80 0 0.0 1.7 0.00 0.00 0.00 89 1014.7
20260508133514 80 0 0.0 2.6 0.00 0.00 0.00 89 1014.8
20260508133035 80 0 0.0 2.6 0.00 0.00 0.00 89 1014.8
20260508132517 80 159 0.0 2.6 0.00 0.00 0.00 89 1014.7
20260508132016 80 0 0.0 1.7 0.00 0.00 0.00 92 1014.5
20260508131534 80 0 0.0 1.7 0.00 0.00 0.00 92 1014.4
20260508131020 79 0 0.0 1.7 0.00 0.00 0.00 93 1014.5
20260508130514 78 136 0.0 0.9 0.00 0.00 0.00 94 1014.3
20260508130031 78 0 0.0 0.9 0.00 0.00 0.00 95 1014.4
20260508125514 77 0 0.0 0.9 0.00 0.00 0.00 96 1014.4
20260508125013 77 0 0.0 0.9 0.00 0.00 0.00 97 1014.4
20260508124530 76 220 0.0 0.9 0.00 0.00 0.00 97 1014.4
20260508124014 76 0 0.0 0.9 0.00 0.00 0.00 98 1014.4
20260508123514 76 0 0.0 1.7 0.00 0.00 0.00 99 1014.2
20260508123034 75 0 0.0 1.7 0.00 0.00 0.00 100 1014.1
20260508122511 74 0 0.0 1.7 0.00 0.00 0.00 100 1014.1
20260508122015 74 0 0.0 0.0 0.00 0.00 0.00 100 1014.1
20260508121533 74 0 0.0 0.0 0.00 0.00 0.00 100 1014.0
20260508121014 73 0 0.0 0.9 0.00 0.00 0.00 100 1014.0
20260508120513 73 0 0.0 0.9 0.00 0.00 0.00 100 1014.0
20260508120031 73 0 0.0 0.9 0.00 0.00 0.00 100 1013.9
20260508115514 72 0 0.0 0.0 0.00 0.00 0.00 100 1013.9
20260508115013 72 0 0.0 0.0 0.00 0.00 0.00 100 1013.9
20260508114535 71 0 0.0 0.0 0.00 0.00 0.00 100 1013.9
20260508114016 71 0 0.0 0.0 0.00 0.00 0.00 100 1013.8
20260508113514 70 0 0.0 0.0 0.00 0.00 0.00 100 1013.7
20260508113045 70 0 0.0 0.0 0.00 0.00 0.00 100 1013.7
20260508112513 70 0 0.0 0.0 0.00 0.00 0.00 100 1013.6
20260508112015 69 0 0.0 0.0 0.00 0.00 0.00 100 1013.5
20260508111534 69 0 0.0 0.0 0.00 0.00 0.00 100 1013.6
20260508111012 69 0 0.0 0.0 0.00 0.00 0.00 100 1013.5
20260508110515 69 0 0.0 0.0 0.00 0.00 0.00 100 1013.4
20260508110032 69 0 0.0 0.0 0.00 0.00 0.00 100 1013.4
20260508105514 69 0 0.0 0.0 0.00 0.00 0.00 100 1013.2
20260508105015 69 0 0.0 0.0 0.00 0.00 0.00 100 1013.2
20260508104537 69 0 0.0 0.0 0.00 0.00 0.00 100 1013.1
20260508104017 69 0 0.0 0.0 0.00 0.00 0.00 100 1013.0
20260508103512 69 0 0.0 0.0 0.00 0.00 0.00 100 1013.1
20260508103032 69 0 0.0 0.0 0.00 0.00 0.00 100 1013.0
20260508102521 69 0 0.0 0.0 0.00 0.00 0.00 100 1013.0
20260508102013 69 0 0.0 0.0 0.00 0.00 0.00 100 1012.9
20260508101537 69 0 0.0 0.0 0.00 0.00 0.00 100 1012.8
20260508101012 69 0 0.0 0.0 0.00 0.00 0.00 100 1012.8
20260508100514 69 0 0.0 0.0 0.00 0.00 0.00 100 1012.8
20260508100036 69 0 0.0 0.0 0.00 0.00 0.00 100 1012.8
20260508095519 69 0 0.0 0.0 0.00 0.00 0.00 100 1012.7
20260508095014 69 0 0.0 0.0 0.00 0.00 0.00 100 1012.6
20260508094531 69 0 0.0 0.0 0.00 0.00 0.00 100 1012.5
20260508094015 69 0 0.0 0.0 0.00 0.00 0.00 100 1012.4
20260508093514 68 0 0.0 0.0 0.00 0.00 0.00 100 1012.4
20260508093033 68 0 0.0 0.0 0.00 0.00 0.00 100 1012.4
20260508092512 68 0 0.0 0.0 0.00 0.00 0.00 100 1012.5
20260508092014 68 0 0.0 0.0 0.00 0.00 0.00 100 1012.4
20260508091534 68 0 0.0 0.0 0.00 0.00 0.00 99 1012.4
20260508091020 68 0 0.0 0.0 0.00 0.00 0.00 100 1012.4
20260508090517 68 0 0.0 0.0 0.00 0.00 0.00 100 1012.4
20260508090041 68 0 0.0 0.0 0.00 0.00 0.00 99 1012.4
20260508085512 69 0 0.0 0.0 0.00 0.00 0.00 100 1012.3
20260508085012 69 0 0.0 0.0 0.00 0.00 0.00 100 1012.3
20260508084530 69 0 0.0 0.0 0.00 0.00 0.00 99 1012.3
20260508084015 69 0 0.0 0.0 0.00 0.00 0.00 100 1012.2
20260508083511 69 0 0.0 0.0 0.00 0.00 0.00 99 1012.3
20260508083038 69 0 0.0 0.0 0.00 0.00 0.00 99 1012.2
20260508082520 69 0 0.0 0.0 0.00 0.00 0.00 99 1012.2
20260508082013 70 0 0.0 0.0 0.00 0.00 0.00 99 1012.3
20260508081535 70 0 0.0 0.0 0.00 0.00 0.00 99 1012.3
20260508081014 70 0 0.0 0.0 0.00 0.00 0.00 99 1012.2
20260508080514 70 0 0.0 0.0 0.00 0.00 0.00 99 1012.2
20260508080030 71 0 0.0 0.0 0.00 0.00 0.00 99 1012.2
20260508075513 71 0 0.0 0.0 0.00 0.00 0.00 99 1012.3
20260508075014 71 0 0.0 0.0 0.00 0.00 0.00 99 1012.2
20260508074532 71 0 0.0 0.0 0.00 0.00 0.00 99 1012.2
20260508074014 71 0 0.0 0.9 0.00 0.00 0.00 99 1012.3
20260508073514 71 0 0.0 0.9 0.00 0.00 0.00 99 1012.3
20260508073033 71 0 0.0 0.9 0.00 0.00 0.00 99 1012.3
20260508072513 71 0 0.0 0.9 0.00 0.00 0.00 99 1012.4
20260508072015 71 0 0.0 0.9 0.00 0.00 0.00 99 1012.5
20260508071532 71 0 0.0 0.0 0.00 0.00 0.00 98 1012.6
20260508071014 71 0 0.0 0.0 0.00 0.00 0.00 98 1012.6
20260508070516 71 0 0.0 0.0 0.00 0.00 0.00 98 1012.7
20260508070031 71 0 0.0 0.0 0.00 0.00 0.00 98 1012.6
20260508065513 72 0 0.0 0.0 0.00 0.00 0.00 98 1012.6
20260508065013 72 0 0.0 0.9 0.00 0.00 0.00 98 1012.7
20260508064551 71 0 0.0 0.9 0.00 0.00 0.00 98 1012.7
20260508064014 71 0 0.0 0.0 0.00 0.00 0.00 98 1012.8
20260508063513 71 0 0.0 0.9 0.00 0.00 0.00 98 1012.8
20260508063032 71 0 0.0 0.9 0.00 0.00 0.00 98 1012.8
20260508062515 71 0 0.0 0.0 0.00 0.00 0.00 98 1012.8
20260508062014 71 0 0.0 0.0 0.00 0.00 0.00 98 1012.8
20260508061533 71 0 0.0 0.0 0.00 0.00 0.00 97 1012.8
20260508061016 71 0 0.0 0.0 0.00 0.00 0.00 96 1012.8
20260508060516 71 0 0.0 0.0 0.00 0.00 0.00 96 1012.9
20260508060036 71 0 0.0 0.0 0.00 0.00 0.00 97 1012.8
20260508055514 71 0 0.0 0.0 0.00 0.00 0.00 96 1012.8
20260508055012 71 0 0.0 0.0 0.00 0.00 0.00 95 1012.9
20260508054549 71 0 0.0 0.0 0.00 0.00 0.00 95 1013.0
20260508054014 71 0 0.0 0.0 0.00 0.00 0.00 94 1013.0
20260508053512 71 0 0.0 0.0 0.00 0.00 0.00 94 1013.0
20260508053032 72 0 0.0 0.0 0.00 0.00 0.00 94 1013.0
20260508052514 72 0 0.0 0.0 0.00 0.00 0.00 94 1013.1
20260508052017 72 0 0.0 0.0 0.00 0.00 0.00 93 1013.1
20260508051533 72 0 0.0 0.0 0.00 0.00 0.00 93 1013.1
20260508051013 72 0 0.0 0.0 0.00 0.00 0.00 93 1013.0
20260508050515 72 0 0.0 0.0 0.00 0.00 0.00 93 1013.1
20260508050037 72 0 0.0 0.0 0.00 0.00 0.00 92 1013.1
20260508045513 72 0 0.0 0.0 0.00 0.00 0.00 92 1013.1
20260508045014 73 0 0.0 0.0 0.00 0.00 0.00 91 1013.0
20260508044531 73 0 0.0 0.0 0.00 0.00 0.00 91 1012.9
20260508044015 73 0 0.0 0.0 0.00 0.00 0.00 91 1013.1
20260508043514 73 0 0.0 1.7 0.00 0.00 0.00 90 1013.0
20260508043042 73 0 0.0 1.7 0.00 0.00 0.00 90 1013.1
20260508042514 73 200 0.0 0.0 0.00 0.00 0.00 90 1013.0
20260508042012 73 0 0.0 0.0 0.00 0.00 0.00 89 1013.1
20260508041534 73 0 0.0 0.0 0.00 0.00 0.00 88 1013.1
20260508041013 74 0 0.0 0.0 0.00 0.00 0.00 88 1013.1
20260508040516 74 0 0.0 0.0 0.00 0.00 0.00 88 1013.1
20260508040033 74 0 0.0 0.0 0.00 0.00 0.00 87 1013.2
20260508035517 74 0 0.0 1.7 0.00 0.00 0.00 87 1013.2
20260508035016 74 0 0.0 1.7 0.00 0.00 0.00 86 1013.2
20260508034533 74 0 0.0 1.7 0.00 0.00 0.00 86 1013.1
20260508034015 74 0 0.0 1.7 0.00 0.00 0.00 85 1013.1
20260508033515 74 0 0.0 1.7 0.00 0.00 0.00 85 1013.2
20260508033035 74 232 0.0 1.7 0.00 0.00 0.00 85 1013.2
20260508032514 74 0 0.0 0.9 0.00 0.00 0.00 85 1013.1
20260508032017 74 0 0.0 0.9 0.00 0.00 0.00 84 1013.0
20260508031533 74 0 0.0 0.9 0.00 0.00 0.00 83 1013.0
20260508031015 74 0 0.0 0.9 0.00 0.00 0.00 82 1012.9
20260508030520 75 0 0.0 0.9 0.00 0.00 0.00 82 1012.7
20260508030035 75 0 0.0 0.0 0.00 0.00 0.00 80 1012.7
20260508025515 75 0 0.0 0.9 0.00 0.00 0.00 79 1012.6
20260508025016 76 0 0.0 0.9 0.00 0.00 0.00 79 1012.6
20260508024534 76 0 0.0 0.0 0.00 0.00 0.00 78 1012.6
20260508024015 76 0 0.0 0.9 0.00 0.00 0.00 78 1012.4
20260508023514 76 0 0.0 0.9 0.00 0.00 0.00 77 1012.4